Location: Oberkirch
(48.5323°N, 8.0787°E)
Time: 17:28:53
(UTC+00:00)

Cosmos 2360 Rocket - Pass Details

Date: 08 November 2025
Orbit: 833 x 843 km, 71.0° (Epoch: 10 December)

Event Time Altitude Azimuth Distance (km) Brightness Sun altitude
Exits shadow 03:59:25 34° 332° (NNW) 1,367 3.0 -24.2°
Drops below altitude 10° 04:03:37 10° 16° (NNE) 2,473 4.8 -23.5°
Sets 04:06:17 0° 25° (NNE) 3,411 5.7 -23.1°
